FW2969 Weather Reports


time (UTC)temp
C
wind
direction
speed
KPH
gust
KPH
rain 1hr
cm
rain 24hr
cm
rain mn
cm
humidity
%
barometer
mb
20260508141504 22 298 0.0 9.7 0.00 0.00 0.00 44 1015.4
20260508140003 22 320 1.6 9.7 0.00 0.00 0.00 43 1015.4
20260508134501 22 293 0.0 11.3 0.00 0.00 0.00 42 1015.4
20260508133102 23 294 1.6 11.3 0.00 0.00 0.00 41 1015.4
20260508131608 22 307 3.2 11.3 0.00 0.00 0.00 39 1015.5
20260508130056 22 303 1.6 9.7 0.00 0.00 0.00 40 1015.6
20260508124555 22 281 4.8 14.5 0.00 0.00 0.00 43 1015.8
20260508123055 22 360 3.2 14.5 0.00 0.00 0.00 50 1015.9
20260508121552 22 277 4.8 16.1 0.00 0.00 0.00 49 1016.0
20260508120050 22 255 3.2 12.9 0.00 0.00 0.00 47 1016.0
20260508114550 21 259 6.4 19.3 0.00 0.00 0.00 48 1016.1
20260508113048 21 314 4.8 16.1 0.00 0.00 0.00 55 1016.1
20260508111551 21 282 3.2 14.5 0.00 0.00 0.00 51 1016.4
20260508110047 21 265 4.8 12.9 0.00 0.00 0.00 59 1016.5
20260508104545 21 245 3.2 12.9 0.00 0.00 0.00 59 1016.5
20260508103045 21 250 4.8 12.9 0.00 0.00 0.00 62 1016.6
20260508101544 20 292 4.8 14.5 0.00 0.00 0.00 63 1016.7
20260508100058 20 319 3.2 12.9 0.00 0.00 0.00 64 1016.8
20260508094544 20 284 6.4 12.9 0.00 0.00 0.00 64 1017.0
20260508093042 20 245 3.2 12.9 0.00 0.00 0.00 71 1017.1
20260508091545 20 288 3.2 9.7 0.00 0.00 0.00 69 1017.3
20260508090106 20 255 3.2 8.0 0.00 0.00 0.00 61 1017.3
20260508084544 19 285 3.2 9.7 0.00 0.00 0.00 60 1017.4
20260508083039 18 280 0.0 4.8 0.00 0.00 0.00 62 1017.6
20260508081553 18 342 0.0 9.7 0.00 0.00 0.00 69 1017.6
20260508080040 19 291 3.2 14.5 0.00 0.00 0.00 63 1017.8
20260508074540 21 197 0.0 8.0 0.00 0.00 0.00 48 1017.7
20260508073040 21 84 1.6 11.3 0.00 0.00 0.00 35 1017.5
20260508071531 21 131 1.6 14.5 0.00 0.00 0.00 40 1017.3
20260508070027 21 107 1.6 9.7 0.00 0.00 0.00 40 1017.3
20260508064527 20 108 3.2 9.7 0.00 0.00 0.00 42 1017.3
20260508063022 20 92 0.0 16.1 0.00 0.00 0.00 42 1017.3
20260508061524 20 124 4.8 14.5 0.00 0.00 0.00 43 1017.4
20260508060017 19 130 3.2 9.7 0.00 0.00 0.00 44 1017.2
20260508054515 18 150 3.2 16.1 0.00 0.00 0.00 46 1017.3
20260508053016 18 155 1.6 14.5 0.00 0.00 0.00 47 1017.2
20260508051509 18 195 1.6 22.5 0.00 0.00 0.00 47 1017.2
20260508050007 17 118 3.2 11.3 0.00 0.00 0.00 48 1017.1
20260508044505 17 88 3.2 11.3 0.00 0.00 0.00 50 1017.2
20260508043100 16 26 1.6 8.0 0.00 0.00 0.00 52 1017.2
20260508041556 16 89 0.0 3.2 0.00 0.00 0.00 54 1017.0
20260508040058 15 81 0.0 6.4 0.00 0.00 0.00 54 1017.0
20260508034553 15 59 0.0 4.8 0.00 0.00 0.00 55 1016.8
20260508033058 15 50 1.6 9.7 0.00 0.00 0.00 54 1016.6
20260508031556 15 63 0.0 9.7 0.00 0.00 0.00 54 1016.5
20260508030058 15 76 1.6 8.0 0.00 0.00 0.00 55 1016.3
20260508024614 15 91 0.0 9.7 0.00 0.03 0.00 54 1016.2
20260508023049 15 91 0.0 9.7 0.00 0.03 0.00 55 1016.1
20260508021550 15 94 0.0 9.7 0.00 0.03 0.00 56 1015.8
20260508020053 15 113 3.2 12.9 0.00 0.03 0.00 56 1015.8
20260508014551 15 98 3.2 9.7 0.00 0.03 0.00 56 1015.9
20260508013043 14 103 1.6 14.5 0.00 0.03 0.00 58 1016.0
20260508011538 13 89 0.0 11.3 0.00 0.03 0.00 61 1016.0
20260508010047 13 71 0.0 9.7 0.00 0.03 0.00 66 1016.2
20260508004542 11 84 1.6 9.7 0.00 0.03 0.00 77 1016.4
20260508003028 11 88 0.0 3.2 0.00 0.03 0.00 86 1016.4
20260508001533 11 136 0.0 3.2 0.00 0.03 0.00 87 1016.6
20260508000024 11 43 0.0 3.2 0.00 0.03 0.00 88 1016.8
20260507234523 11 61 0.0 1.6 0.00 0.03 0.00 89 1016.7
20260507233022 11 65 0.0 0.0 0.00 0.03 0.00 88 1016.7
20260507231522 11 65 0.0 0.0 0.00 0.03 0.00 88 1016.8
20260507230018 12 65 0.0 1.6 0.00 0.03 0.00 87 1016.8
20260507224516 12 342 0.0 1.6 0.00 0.03 0.00 87 1016.9
20260507223016 12 341 0.0 4.8 0.00 0.03 0.00 87 1016.9
20260507221515 12 71 0.0 1.6 0.00 0.03 0.00 87 1017.1
20260507220014 12 71 0.0 0.0 0.00 0.03 0.00 85 1017.1
20260507214511 12 71 0.0 1.6 0.00 0.03 0.00 85 1017.2
20260507213014 12 71 0.0 1.6 0.00 0.03 0.00 85 1017.3
20260507211507 12 71 0.0 1.6 0.00 0.03 0.00 84 1017.1
20260507210005 12 71 0.0 0.0 0.00 0.03 0.00 84 1017.1
20260507204505 12 71 0.0 3.2 0.00 0.03 0.03 84 1017.1
20260507203004 13 332 0.0 4.8 0.00 0.03 0.03 83 1017.1
20260507201504 13 328 0.0 3.2 0.00 0.03 0.03 82 1016.9
20260507200003 13 12 0.0 3.2 0.00 0.03 0.03 82 1016.9
20260507194503 13 15 0.0 0.0 0.00 0.03 0.03 82 1017.0
20260507193003 13 15 0.0 1.6 0.00 0.03 0.03 82 1017.1
20260507191503 13 9 0.0 3.2 0.00 0.03 0.03 80 1017.1
20260507190006 13 61 0.0 3.2 0.00 0.03 0.03 79 1017.1
20260507184502 13 359 0.0 6.4 0.00 0.03 0.03 77 1017.4
20260507183100 13 28 0.0 9.7 0.00 0.03 0.03 77 1017.5
20260507181507 13 313 0.0 3.2 0.00 0.03 0.03 77 1017.4
20260507180011 13 7 0.0 4.8 0.00 0.03 0.03 77 1017.3
20260507174504 13 23 0.0 3.2 0.00 0.03 0.03 78 1017.3
20260507173008 13 73 0.0 0.0 0.00 0.03 0.03 75 1017.2
20260507171502 13 73 0.0 1.6 0.00 0.03 0.03 71 1017.1
20260507170003 13 26 0.0 3.2 0.00 0.03 0.03 70 1017.0
20260507164503 13 344 0.0 3.2 0.00 0.03 0.03 72 1016.9
20260507163001 14 327 0.0 3.2 0.00 0.03 0.03 75 1016.8
20260507161614 15 301 0.0 1.6 0.00 0.03 0.03 74 1016.8
20260507160104 15 297 0.0 3.2 0.00 0.03 0.03 71 1016.7
20260507154559 16 319 1.6 6.4 0.00 0.03 0.03 69 1016.8
20260507153100 17 272 1.6 6.4 0.00 0.03 0.03 66 1016.9
20260507151603 17 330 1.6 6.4 0.00 0.03 0.03 64 1016.9
20260507150057 17 37 0.0 11.3 0.00 0.03 0.03 64 1017.0
20260507144612 17 311 1.6 9.7 0.00 0.03 0.03 61 1016.9
20260507143102 17 304 3.2 14.5 0.00 0.03 0.03 61 1016.9